Time,TemperatureF,DewpointF,PressureIn,WindDirection,WindDirectionDegrees,WindSpeedMPH,WindSpeedGustMPH,Humidity,HourlyPrecipIn,Conditions,Clouds,dailyrainin,SolarRadiationWatts/m^2,SoftwareType,DateUTC
2013-01-11 00:03:00,63.0,61.0,-100.00,SE,144,1.0,-999.0,92,0.00,,,-99.99,0.000000,,2013-01-11 05:03:00,
2013-01-11 00:13:00,63.0,61.0,-100.00,SE,136,2.0,-999.0,93,0.00,,,-99.99,0.000000,,2013-01-11 05:13:00,
2013-01-11 00:22:00,63.0,61.0,-100.00,SE,136,2.0,-999.0,93,0.00,,,-99.99,0.000000,,2013-01-11 05:22:00,
2013-01-11 00:33:00,63.0,61.0,-100.00,SSE,150,1.0,-999.0,93,0.00,,,-99.99,0.000000,,2013-01-11 05:33:00,
2013-01-11 00:43:00,63.0,61.0,-100.00,SSE,151,1.0,-999.0,93,0.00,,,-99.99,0.000000,,2013-01-11 05:43:00,
2013-01-11 00:53:00,63.0,61.0,-100.00,SSE,151,1.0,-999.0,93,0.00,,,-99.99,0.000000,,2013-01-11 05:53:00,
2013-01-11 01:03:00,63.0,61.0,-100.00,SE,138,0.0,-999.0,94,0.00,,,-99.99,0.000000,,2013-01-11 06:03:00,
2013-01-11 01:12:00,62.0,60.0,-100.00,East,89,2.0,-999.0,94,0.00,,,-99.99,0.000000,,2013-01-11 06:12:00,
2013-01-11 01:22:00,62.0,60.0,-100.00,East,89,2.0,-999.0,94,0.00,,,-99.99,0.000000,,2013-01-11 06:22:00,
2013-01-11 01:32:00,62.0,60.0,-100.00,ESE,113,1.0,-999.0,94,0.00,,,-99.99,0.000000,,2013-01-11 06:32:00,
2013-01-11 01:42:00,62.0,61.0,-100.00,SE,143,1.0,-999.0,94,0.00,,,-99.99,0.000000,,2013-01-11 06:42:00,
2013-01-11 01:52:00,62.0,61.0,-100.00,SE,143,1.0,-999.0,94,0.00,,,-99.99,0.000000,,2013-01-11 06:52:00,
2013-01-11 02:02:00,62.0,61.0,-100.00,SSE,154,1.0,-999.0,95,0.00,,,-99.99,0.000000,,2013-01-11 07:02:00,
2013-01-11 02:12:00,62.0,61.0,-100.00,SSE,154,2.0,-999.0,95,0.00,,,-99.99,0.000000,,2013-01-11 07:12:00,
2013-01-11 02:22:00,62.0,61.0,-100.00,SSE,154,2.0,-999.0,95,0.00,,,-99.99,0.000000,,2013-01-11 07:22:00,
2013-01-11 02:32:00,63.0,62.0,-100.00,SSE,152,2.0,-999.0,95,0.00,,,-99.99,0.000000,,2013-01-11 07:32:00,
2013-01-11 02:42:00,65.0,64.0,-100.00,SSE,148,3.0,-999.0,95,0.00,,,-99.99,0.000000,,2013-01-11 07:42:00,
2013-01-11 02:52:00,65.0,64.0,-100.00,SSE,148,3.0,-999.0,95,0.00,,,-99.99,0.000000,,2013-01-11 07:52:00,
2013-01-11 03:02:00,65.0,64.0,-100.00,SSE,150,3.0,-999.0,95,0.00,,,-99.99,0.000000,,2013-01-11 08:02:00,
2013-01-11 03:12:00,65.0,64.0,-100.00,SSE,153,3.0,-999.0,94,0.00,,,-99.99,0.000000,,2013-01-11 08:12:00,
2013-01-11 03:22:00,65.0,64.0,-100.00,SSE,153,3.0,-999.0,94,0.00,,,-99.99,0.000000,,2013-01-11 08:22:00,
2013-01-11 03:32:00,65.0,64.0,-100.00,SSE,154,2.0,-999.0,94,0.00,,,-99.99,0.000000,,2013-01-11 08:32:00,
2013-01-11 03:42:00,65.0,64.0,-100.00,SSE,157,2.0,-999.0,94,0.00,,,-99.99,0.000000,,2013-01-11 08:42:00,
2013-01-11 03:53:00,65.0,64.0,-100.00,SSE,157,2.0,-999.0,94,0.00,,,-99.99,0.000000,,2013-01-11 08:53:00,
2013-01-11 04:02:00,64.0,63.0,-100.00,SSE,156,1.0,-999.0,94,0.00,,,-99.99,0.000000,,2013-01-11 09:02:00,
2013-01-11 04:12:00,64.0,62.0,-100.00,SSE,156,1.0,-999.0,94,0.00,,,-99.99,0.000000,,2013-01-11 09:12:00,
2013-01-11 04:23:00,64.0,62.0,-100.00,SSE,156,1.0,-999.0,94,0.00,,,-99.99,0.000000,,2013-01-11 09:23:00,
2013-01-11 04:32:00,64.0,62.0,-100.00,SE,135,1.0,-999.0,95,0.00,,,-99.99,0.000000,,2013-01-11 09:32:00,
2013-01-11 04:42:00,64.0,62.0,-100.00,SE,138,2.0,-999.0,95,0.00,,,-99.99,0.000000,,2013-01-11 09:42:00,
2013-01-11 04:52:00,64.0,62.0,-100.00,SE,138,2.0,-999.0,95,0.00,,,-99.99,0.000000,,2013-01-11 09:52:00,
2013-01-11 05:02:00,63.0,62.0,-100.00,SE,145,2.0,-999.0,95,0.00,,,-99.99,0.000000,,2013-01-11 10:02:00,
2013-01-11 05:12:00,63.0,62.0,-100.00,SSE,155,1.0,-999.0,95,0.00,,,-99.99,0.000000,,2013-01-11 10:12:00,
2013-01-11 05:22:00,63.0,62.0,-100.00,SSE,155,1.0,-999.0,95,0.00,,,-99.99,0.000000,,2013-01-11 10:22:00,
2013-01-11 05:32:00,63.0,62.0,-100.00,SE,125,0.0,-999.0,95,0.00,,,-99.99,0.000000,,2013-01-11 10:32:00,
2013-01-11 05:42:00,63.0,62.0,-100.00,ENE,62,1.0,-999.0,95,0.00,,,-99.99,0.000000,,2013-01-11 10:42:00,
2013-01-11 05:52:00,63.0,62.0,-100.00,ENE,62,1.0,-999.0,95,0.00,,,-99.99,0.000000,,2013-01-11 10:52:00,
2013-01-11 06:03:00,63.0,62.0,-100.00,East,82,1.0,-999.0,95,0.00,,,-99.99,0.000000,,2013-01-11 11:03:00,
2013-01-11 06:12:00,64.0,63.0,-100.00,East,86,1.0,-999.0,96,0.00,,,-99.99,0.000000,,2013-01-11 11:12:00,
2013-01-11 06:22:00,64.0,63.0,-100.00,East,86,1.0,-999.0,96,0.00,,,-99.99,0.000000,,2013-01-11 11:22:00,
2013-01-11 06:33:00,64.0,63.0,-100.00,East,89,2.0,-999.0,96,0.00,,,-99.99,0.000000,,2013-01-11 11:33:00,
2013-01-11 06:43:00,64.0,63.0,-100.00,ENE,58,2.0,-999.0,96,0.00,,,-99.99,0.000000,,2013-01-11 11:43:00,
2013-01-11 06:53:00,64.0,63.0,-100.00,ENE,58,2.0,-999.0,96,0.00,,,-99.99,0.000000,,2013-01-11 11:53:00,
2013-01-11 07:03:00,64.0,63.0,-100.00,NE,39,2.0,-999.0,96,0.00,,,-99.99,0.000000,,2013-01-11 12:03:00,
2013-01-11 07:12:00,64.0,63.0,-100.00,NE,43,2.0,-999.0,96,0.00,,,-99.99,0.000000,,2013-01-11 12:12:00,
2013-01-11 07:22:00,64.0,63.0,-100.00,NE,43,2.0,-999.0,96,0.00,,,-99.99,0.000000,,2013-01-11 12:22:00,
2013-01-11 07:33:00,65.0,63.0,-100.00,ESE,105,2.0,-999.0,96,0.00,,,-99.99,0.600000,,2013-01-11 12:33:00,
2013-01-11 07:43:00,64.0,63.0,-100.00,SE,126,1.0,-999.0,96,0.00,,,-99.99,4.200000,,2013-01-11 12:43:00,
2013-01-11 07:53:00,64.0,63.0,-100.00,SE,126,1.0,-999.0,96,0.00,,,-99.99,4.200000,,2013-01-11 12:53:00,
2013-01-11 08:03:00,65.0,64.0,-100.00,SE,128,2.0,-999.0,96,0.00,,,-99.99,17.000000,,2013-01-11 13:03:00,
2013-01-11 08:13:00,65.0,63.0,-100.00,ESE,107,1.0,-999.0,96,0.00,,,-99.99,20.100000,,2013-01-11 13:13:00,
2013-01-11 08:22:00,65.0,63.0,-100.00,ESE,107,1.0,-999.0,96,0.00,,,-99.99,20.100000,,2013-01-11 13:22:00,
2013-01-11 08:33:00,65.0,63.0,-100.00,East,83,2.0,-999.0,96,0.00,,,-99.99,48.400002,,2013-01-11 13:33:00,
2013-01-11 08:43:00,66.0,65.0,-100.00,ENE,71,2.0,-999.0,96,0.00,,,-99.99,115.400002,,2013-01-11 13:43:00,
2013-01-11 08:53:00,66.0,65.0,-100.00,ENE,71,2.0,-999.0,96,0.00,,,-99.99,115.400002,,2013-01-11 13:53:00,
2013-01-11 09:03:00,67.0,66.0,-100.00,ESE,102,2.0,-999.0,95,0.00,,,-99.99,201.500000,,2013-01-11 14:03:00,
2013-01-11 09:12:00,68.0,67.0,-100.00,ESE,114,3.0,-999.0,95,0.00,,,-99.99,171.800003,,2013-01-11 14:12:00,
2013-01-11 09:23:00,68.0,67.0,-100.00,ESE,114,3.0,-999.0,95,0.00,,,-99.99,171.800003,,2013-01-11 14:23:00,
2013-01-11 09:33:00,69.0,67.0,-100.00,ESE,110,2.0,-999.0,94,0.00,,,-99.99,138.100006,,2013-01-11 14:33:00,
2013-01-11 09:43:00,69.0,67.0,-100.00,East,80,2.0,-999.0,93,0.00,,,-99.99,229.699997,,2013-01-11 14:43:00,
2013-01-11 09:53:00,69.0,67.0,-100.00,East,80,2.0,-999.0,93,0.00,,,-99.99,229.699997,,2013-01-11 14:53:00,
2013-01-11 10:03:00,72.0,68.0,-100.00,ESE,116,3.0,-999.0,90,0.00,,,-99.99,293.500000,,2013-01-11 15:03:00,
2013-01-11 10:13:00,73.0,69.0,-100.00,ESE,115,3.0,-999.0,85,0.00,,,-99.99,384.000000,,2013-01-11 15:13:00,
2013-01-11 10:23:00,73.0,69.0,-100.00,ESE,115,3.0,-999.0,85,0.00,,,-99.99,384.000000,,2013-01-11 15:23:00,
2013-01-11 10:33:00,74.0,69.0,-100.00,ESE,119,3.0,-999.0,82,0.00,,,-99.99,363.100006,,2013-01-11 15:33:00,
2013-01-11 10:43:00,74.0,69.0,-100.00,ESE,122,4.0,-999.0,82,0.00,,,-99.99,368.000000,,2013-01-11 15:43:00,
2013-01-11 10:53:00,74.0,69.0,-100.00,ESE,122,4.0,-999.0,82,0.00,,,-99.99,368.000000,,2013-01-11 15:53:00,
2013-01-11 11:03:00,75.0,68.0,-100.00,SE,128,4.0,-999.0,80,0.00,,,-99.99,268.899994,,2013-01-11 16:03:00,
2013-01-11 11:12:00,75.0,69.0,-100.00,SE,135,5.0,-999.0,79,0.00,,,-99.99,441.200012,,2013-01-11 16:12:00,
2013-01-11 11:23:00,75.0,69.0,-100.00,SE,135,5.0,-999.0,79,0.00,,,-99.99,441.200012,,2013-01-11 16:23:00,
2013-01-11 11:33:00,76.0,69.0,-100.00,ESE,123,5.0,-999.0,76,0.00,,,-99.99,451.200012,,2013-01-11 16:33:00,
2013-01-11 11:43:00,76.0,68.0,-100.00,SE,141,6.0,-999.0,75,0.00,,,-99.99,367.200012,,2013-01-11 16:43:00,
2013-01-11 11:53:00,76.0,68.0,-100.00,SE,141,6.0,-999.0,75,0.00,,,-99.99,367.200012,,2013-01-11 16:53:00,
2013-01-11 12:03:00,78.0,68.0,-100.00,SE,141,5.0,-999.0,71,0.00,,,-99.99,649.200012,,2013-01-11 17:03:00,
2013-01-11 12:12:00,79.0,67.0,-100.00,SE,144,5.0,-999.0,67,0.00,,,-99.99,635.599976,,2013-01-11 17:12:00,
2013-01-11 12:22:00,79.0,67.0,-100.00,SE,144,5.0,-999.0,67,0.00,,,-99.99,635.599976,,2013-01-11 17:22:00,
2013-01-11 12:33:00,78.0,67.0,-100.00,SSE,152,5.0,-999.0,67,0.00,,,-99.99,628.700012,,2013-01-11 17:33:00,
2013-01-11 12:43:00,78.0,66.0,-100.00,SSE,150,5.0,-999.0,64,0.00,,,-99.99,634.200012,,2013-01-11 17:43:00,
2013-01-11 12:53:00,78.0,66.0,-100.00,SSE,150,5.0,-999.0,64,0.00,,,-99.99,634.200012,,2013-01-11 17:53:00,
2013-01-11 13:03:00,78.0,66.0,-100.00,SE,144,6.0,-999.0,65,0.00,,,-99.99,615.400024,,2013-01-11 18:03:00,
2013-01-11 13:13:00,79.0,66.0,-100.00,SE,146,5.0,-999.0,64,0.00,,,-99.99,637.700012,,2013-01-11 18:13:00,
2013-01-11 13:23:00,79.0,66.0,-100.00,SE,146,5.0,-999.0,64,0.00,,,-99.99,637.700012,,2013-01-11 18:23:00,
2013-01-11 13:33:00,79.0,66.0,-100.00,SSE,157,5.0,-999.0,64,0.00,,,-99.99,537.299988,,2013-01-11 18:33:00,
2013-01-11 13:43:00,77.0,67.0,-100.00,SSE,152,5.0,-999.0,69,0.00,,,-99.99,221.699997,,2013-01-11 18:43:00,
2013-01-11 13:53:00,77.0,67.0,-100.00,SSE,152,5.0,-999.0,69,0.00,,,-99.99,221.699997,,2013-01-11 18:53:00,
2013-01-11 14:03:00,77.0,67.0,-100.00,SSE,148,5.0,-999.0,71,0.00,,,-99.99,339.600006,,2013-01-11 19:03:00,
2013-01-11 14:12:00,78.0,67.0,-100.00,SE,139,6.0,-999.0,69,0.00,,,-99.99,392.500000,,2013-01-11 19:12:00,
2013-01-11 14:22:00,78.0,67.0,-100.00,SE,139,6.0,-999.0,69,0.00,,,-99.99,392.500000,,2013-01-11 19:22:00,
2013-01-11 14:32:00,77.0,67.0,-100.00,SE,137,5.0,-999.0,70,0.00,,,-99.99,185.500000,,2013-01-11 19:32:00,
2013-01-11 14:43:00,77.0,67.0,-100.00,SE,128,4.0,-999.0,70,0.00,,,-99.99,198.199997,,2013-01-11 19:43:00,
2013-01-11 14:53:00,77.0,67.0,-100.00,SE,128,4.0,-999.0,70,0.00,,,-99.99,198.199997,,2013-01-11 19:53:00,
2013-01-11 15:03:00,78.0,67.0,-100.00,SE,135,6.0,-999.0,68,0.00,,,-99.99,260.000000,,2013-01-11 20:03:00,
2013-01-11 15:13:00,78.0,67.0,-100.00,ESE,122,5.0,-999.0,69,0.00,,,-99.99,241.399994,,2013-01-11 20:13:00,
2013-01-11 15:22:00,78.0,67.0,-100.00,ESE,122,5.0,-999.0,69,0.00,,,-99.99,241.399994,,2013-01-11 20:22:00,
2013-01-11 15:33:00,78.0,67.0,-100.00,SE,136,4.0,-999.0,69,0.00,,,-99.99,211.500000,,2013-01-11 20:33:00,
2013-01-11 15:43:00,78.0,67.0,-100.00,SE,135,6.0,-999.0,70,0.00,,,-99.99,164.899994,,2013-01-11 20:43:00,
2013-01-11 15:53:00,78.0,67.0,-100.00,SE,135,6.0,-999.0,70,0.00,,,-99.99,164.899994,,2013-01-11 20:53:00,
2013-01-11 16:03:00,77.0,67.0,-100.00,SE,132,7.0,-999.0,70,0.00,,,-99.99,250.500000,,2013-01-11 21:03:00,
2013-01-11 16:13:00,78.0,68.0,-100.00,SE,131,7.0,-999.0,71,0.00,,,-99.99,249.300003,,2013-01-11 21:13:00,
2013-01-11 16:23:00,78.0,68.0,-100.00,SE,131,7.0,-999.0,71,0.00,,,-99.99,249.300003,,2013-01-11 21:23:00,
2013-01-11 16:33:00,76.0,67.0,-100.00,SE,142,5.0,-999.0,72,0.00,,,-99.99,105.800003,,2013-01-11 21:33:00,
2013-01-11 16:42:00,75.0,66.0,-100.00,SE,139,7.0,-999.0,72,0.00,,,-99.99,71.000000,,2013-01-11 21:42:00,
2013-01-11 16:53:00,75.0,66.0,-100.00,SE,139,7.0,-999.0,72,0.00,,,-99.99,71.000000,,2013-01-11 21:53:00,
2013-01-11 17:02:00,75.0,67.0,-100.00,SE,136,5.0,-999.0,74,0.00,,,-99.99,92.099998,,2013-01-11 22:02:00,
2013-01-11 17:12:00,76.0,67.0,-100.00,SE,128,4.0,-999.0,74,0.00,,,-99.99,139.699997,,2013-01-11 22:12:00,
2013-01-11 17:22:00,76.0,67.0,-100.00,SE,128,4.0,-999.0,74,0.00,,,-99.99,139.699997,,2013-01-11 22:22:00,
2013-01-11 17:33:00,76.0,67.0,-100.00,SE,124,5.0,-999.0,72,0.00,,,-99.99,123.599998,,2013-01-11 22:33:00,
2013-01-11 17:42:00,75.0,66.0,-100.00,SE,128,5.0,-999.0,73,0.00,,,-99.99,51.599998,,2013-01-11 22:42:00,
2013-01-11 17:53:00,75.0,66.0,-100.00,SE,128,5.0,-999.0,73,0.00,,,-99.99,51.599998,,2013-01-11 22:53:00,
2013-01-11 18:02:00,74.0,66.0,-100.00,SE,127,4.0,-999.0,74,0.00,,,-99.99,19.000000,,2013-01-11 23:02:00,
2013-01-11 18:13:00,74.0,66.0,-100.00,SE,134,4.0,-999.0,75,0.00,,,-99.99,4.300000,,2013-01-11 23:13:00,
2013-01-11 18:23:00,74.0,66.0,-100.00,SE,134,4.0,-999.0,75,0.00,,,-99.99,4.300000,,2013-01-11 23:23:00,
2013-01-11 18:32:00,73.0,66.0,-100.00,SE,128,4.0,-999.0,77,0.00,,,-99.99,0.500000,,2013-01-11 23:32:00,
2013-01-11 18:43:00,72.0,66.0,-100.00,SE,131,3.0,-999.0,79,0.00,,,-99.99,0.000000,,2013-01-11 23:43:00,
2013-01-11 18:53:00,72.0,66.0,-100.00,SE,131,3.0,-999.0,79,0.00,,,-99.99,0.000000,,2013-01-11 23:53:00,
2013-01-11 19:02:00,72.0,66.0,-100.00,SE,134,4.0,-999.0,80,0.00,,,-99.99,0.000000,,2013-01-12 00:02:00,
2013-01-11 19:12:00,72.0,66.0,-100.00,SE,136,4.0,-999.0,81,0.00,,,-99.99,0.000000,,2013-01-12 00:12:00,
2013-01-11 19:23:00,72.0,66.0,-100.00,SE,136,4.0,-999.0,81,0.00,,,-99.99,0.000000,,2013-01-12 00:23:00,
2013-01-11 19:33:00,71.0,65.0,-100.00,SE,141,4.0,-999.0,82,0.00,,,-99.99,0.000000,,2013-01-12 00:33:00,
2013-01-11 19:43:00,70.0,65.0,-100.00,SE,137,3.0,-999.0,84,0.00,,,-99.99,0.000000,,2013-01-12 00:43:00,
2013-01-11 19:53:00,70.0,65.0,-100.00,SE,137,3.0,-999.0,84,0.00,,,-99.99,0.000000,,2013-01-12 00:53:00,
2013-01-11 20:02:00,69.0,65.0,-100.00,SE,128,2.0,-999.0,85,0.00,,,-99.99,0.000000,,2013-01-12 01:02:00,
2013-01-11 20:12:00,69.0,65.0,-100.00,SE,126,2.0,-999.0,87,0.00,,,-99.99,0.000000,,2013-01-12 01:12:00,
2013-01-11 20:22:00,69.0,65.0,-100.00,SE,126,2.0,-999.0,87,0.00,,,-99.99,0.000000,,2013-01-12 01:22:00,
2013-01-11 20:33:00,68.0,65.0,-100.00,ESE,122,2.0,-999.0,88,0.00,,,-99.99,0.000000,,2013-01-12 01:33:00,
2013-01-11 20:43:00,67.0,64.0,-100.00,SE,136,2.0,-999.0,89,0.00,,,-99.99,0.000000,,2013-01-12 01:43:00,
2013-01-11 20:53:00,67.0,64.0,-100.00,SE,136,2.0,-999.0,89,0.00,,,-99.99,0.000000,,2013-01-12 01:53:00,
2013-01-11 21:02:00,68.0,65.0,-100.00,SE,135,3.0,-999.0,90,0.00,,,-99.99,0.000000,,2013-01-12 02:02:00,
2013-01-11 21:12:00,68.0,65.0,-100.00,SE,134,4.0,-999.0,89,0.00,,,-99.99,0.000000,,2013-01-12 02:12:00,
2013-01-11 21:22:00,68.0,65.0,-100.00,SE,134,4.0,-999.0,89,0.00,,,-99.99,0.000000,,2013-01-12 02:22:00,
2013-01-11 21:33:00,69.0,65.0,-100.00,SE,128,4.0,-999.0,87,0.00,,,-99.99,0.000000,,2013-01-12 02:33:00,
2013-01-11 21:43:00,68.0,65.0,-100.00,ESE,114,3.0,-999.0,87,0.00,,,-99.99,0.000000,,2013-01-12 02:43:00,
2013-01-11 21:53:00,68.0,65.0,-100.00,ESE,114,3.0,-999.0,87,0.00,,,-99.99,0.000000,,2013-01-12 02:53:00,
2013-01-11 22:03:00,68.0,64.0,-100.00,ESE,123,3.0,-999.0,88,0.00,,,-99.99,0.000000,,2013-01-12 03:03:00,
2013-01-11 22:12:00,67.0,64.0,-100.00,SE,139,3.0,-999.0,89,0.00,,,-99.99,0.000000,,2013-01-12 03:12:00,
2013-01-11 22:22:00,67.0,64.0,-100.00,SE,139,3.0,-999.0,89,0.00,,,-99.99,0.000000,,2013-01-12 03:22:00,
2013-01-11 22:33:00,67.0,64.0,-100.00,SE,135,4.0,-999.0,89,0.00,,,-99.99,0.000000,,2013-01-12 03:33:00,
2013-01-11 22:43:00,67.0,64.0,-100.00,SE,135,3.0,-999.0,90,0.00,,,-99.99,0.000000,,2013-01-12 03:43:00,
2013-01-11 22:53:00,67.0,64.0,-100.00,SE,135,3.0,-999.0,90,0.00,,,-99.99,0.000000,,2013-01-12 03:53:00,
2013-01-11 23:02:00,67.0,64.0,-100.00,SE,134,3.0,-999.0,90,0.00,,,-99.99,0.000000,,2013-01-12 04:02:00,
2013-01-11 23:12:00,67.0,64.0,-100.00,SE,132,3.0,-999.0,91,0.00,,,-99.99,0.000000,,2013-01-12 04:12:00,
2013-01-11 23:22:00,67.0,64.0,-100.00,SE,132,3.0,-999.0,91,0.00,,,-99.99,0.000000,,2013-01-12 04:22:00,
2013-01-11 23:32:00,66.0,64.0,-100.00,SE,132,3.0,-999.0,91,0.00,,,-99.99,0.000000,,2013-01-12 04:32:00,
2013-01-11 23:42:00,66.0,64.0,-100.00,SE,141,3.0,-999.0,92,0.00,,,-99.99,0.000000,,2013-01-12 04:42:00,
2013-01-11 23:52:00,66.0,64.0,-100.00,SE,141,3.0,-999.0,92,0.00,,,-99.99,0.000000,,2013-01-12 04:52:00,